Time,TemperatureF,DewpointF,PressureIn,WindDirection,WindDirectionDegrees,WindSpeedMPH,WindSpeedGustMPH,Humidity,HourlyPrecipIn,Conditions,Clouds,dailyrainin,SoftwareType,DateUTC
2013-07-22 00:00:00,78.8,76.6,29.89,NNW,335,0.0,0.0,93,0.00,,---,0.00,VWS V14.01,2013-07-22 04:00:00,
2013-07-22 00:01:00,78.8,76.6,29.89,NNW,335,0.0,0.0,93,0.00,,---,0.00,VWS V14.01,2013-07-22 04:01:00,
2013-07-22 00:06:00,78.8,76.6,29.89,NNW,335,0.0,0.0,93,0.00,,---,0.00,VWS V14.01,2013-07-22 04:06:00,
2013-07-22 00:11:00,78.6,76.4,29.89,NNW,335,0.0,0.0,93,0.00,,---,0.00,VWS V14.01,2013-07-22 04:11:00,
2013-07-22 00:16:00,78.6,76.7,29.89,NNW,335,0.0,0.0,94,0.00,,---,0.00,VWS V14.01,2013-07-22 04:16:00,
2013-07-22 00:21:00,78.6,76.7,29.89,NNW,335,0.0,0.0,94,0.00,,---,0.00,VWS V14.01,2013-07-22 04:21:00,
2013-07-22 00:26:00,78.6,76.7,29.89,NNW,335,0.0,0.0,94,0.00,,---,0.00,VWS V14.01,2013-07-22 04:26:00,
2013-07-22 00:31:00,78.6,76.7,29.89,NNW,335,0.0,0.0,94,0.00,,---,0.00,VWS V14.01,2013-07-22 04:31:00,
2013-07-22 00:36:00,78.6,76.7,29.89,NNW,335,0.0,0.0,94,0.00,,---,0.00,VWS V14.01,2013-07-22 04:36:00,
2013-07-22 00:41:00,78.5,76.3,29.89,NNW,335,0.0,0.0,93,0.00,,---,0.00,VWS V14.01,2013-07-22 04:41:00,
2013-07-22 00:46:00,78.5,76.6,29.89,NNW,335,0.0,0.0,94,0.00,,---,0.00,VWS V14.01,2013-07-22 04:46:00,
2013-07-22 00:51:00,78.5,76.6,29.88,NNW,335,0.0,0.0,94,0.00,,---,0.00,VWS V14.01,2013-07-22 04:51:00,
2013-07-22 00:56:00,78.5,76.6,29.88,NNW,335,0.0,0.0,94,0.00,,---,0.00,VWS V14.01,2013-07-22 04:56:00,
2013-07-22 01:01:00,78.5,76.6,29.88,NNW,335,0.0,0.0,94,0.00,,---,0.00,VWS V14.01,2013-07-22 05:01:00,
2013-07-22 01:06:00,78.3,76.4,29.88,NNW,335,0.0,0.0,94,0.00,,---,0.00,VWS V14.01,2013-07-22 05:06:00,
2013-07-22 01:11:00,78.3,76.4,29.88,NNW,335,0.0,0.0,94,0.00,,---,0.00,VWS V14.01,2013-07-22 05:11:00,
2013-07-22 01:16:00,78.3,76.4,29.88,NNW,335,0.0,0.0,94,0.00,,---,0.00,VWS V14.01,2013-07-22 05:16:00,
2013-07-22 01:21:00,78.3,76.4,29.88,NNW,335,0.0,0.0,94,0.00,,---,0.00,VWS V14.01,2013-07-22 05:21:00,
2013-07-22 01:26:00,78.1,76.2,29.88,NNW,335,0.0,0.0,94,0.00,,---,0.00,VWS V14.01,2013-07-22 05:26:00,
2013-07-22 01:31:00,78.1,76.2,29.88,NNW,335,0.0,0.0,94,0.00,,---,0.00,VWS V14.01,2013-07-22 05:31:00,
2013-07-22 01:36:00,78.1,76.2,29.87,NNW,335,0.0,0.0,94,0.00,,---,0.00,VWS V14.01,2013-07-22 05:36:00,
2013-07-22 01:41:00,78.1,76.6,29.87,NNW,335,0.0,0.0,95,0.00,,---,0.00,VWS V14.01,2013-07-22 05:41:00,
2013-07-22 01:46:00,78.1,76.6,29.87,WSW,258,0.0,0.0,95,0.00,,---,0.00,VWS V14.01,2013-07-22 05:46:00,
2013-07-22 01:51:00,77.9,76.4,29.86,WSW,258,0.0,0.0,95,0.00,,---,0.00,VWS V14.01,2013-07-22 05:51:00,
2013-07-22 01:56:00,77.9,76.4,29.86,WSW,258,0.0,0.0,95,0.00,,---,0.00,VWS V14.01,2013-07-22 05:56:00,
2013-07-22 02:01:00,77.7,75.8,29.86,WSW,258,0.0,0.0,94,0.00,,---,0.00,VWS V14.01,2013-07-22 06:01:00,
2013-07-22 02:06:00,77.7,75.8,29.86,WSW,258,0.0,0.0,94,0.00,,---,0.00,VWS V14.01,2013-07-22 06:06:00,
2013-07-22 02:11:00,77.7,76.2,29.86,WSW,258,0.0,0.0,95,0.00,,---,0.00,VWS V14.01,2013-07-22 06:11:00,
2013-07-22 02:16:00,77.7,75.8,29.86,WSW,239,0.0,0.0,94,0.00,,---,0.00,VWS V14.01,2013-07-22 06:16:00,
2013-07-22 02:21:00,77.6,75.7,29.86,West,271,0.0,0.0,94,0.00,,---,0.00,VWS V14.01,2013-07-22 06:21:00,
2013-07-22 02:26:00,77.4,75.5,29.86,WSW,257,0.0,0.0,94,0.00,,---,0.00,VWS V14.01,2013-07-22 06:26:00,
2013-07-22 02:31:00,77.4,75.5,29.86,NW,311,0.0,0.0,94,0.00,,---,0.00,VWS V14.01,2013-07-22 06:31:00,
2013-07-22 02:36:00,77.4,75.5,29.86,NW,311,0.0,0.0,94,0.00,,---,0.00,VWS V14.01,2013-07-22 06:36:00,
2013-07-22 02:41:00,77.2,75.0,29.86,NW,311,0.0,0.0,93,0.00,,---,0.00,VWS V14.01,2013-07-22 06:41:00,
2013-07-22 02:46:00,77.2,75.3,29.86,WNW,282,0.0,0.0,94,0.00,,---,0.00,VWS V14.01,2013-07-22 06:46:00,
2013-07-22 02:51:00,77.2,75.3,29.86,WNW,282,0.0,0.0,94,0.00,,---,0.00,VWS V14.01,2013-07-22 06:51:00,
2013-07-22 02:56:00,77.0,74.8,29.86,WSW,239,0.0,0.0,93,0.00,,---,0.00,VWS V14.01,2013-07-22 06:56:00,
2013-07-22 03:01:00,77.0,74.8,29.86,WSW,239,0.0,0.0,93,0.00,,---,0.00,VWS V14.01,2013-07-22 07:01:00,
2013-07-22 03:06:00,76.8,74.6,29.85,WSW,239,0.0,0.0,93,0.00,,---,0.00,VWS V14.01,2013-07-22 07:06:00,
2013-07-22 03:11:00,76.8,74.3,29.85,WSW,239,0.0,0.0,92,0.00,,---,0.00,VWS V14.01,2013-07-22 07:11:00,
2013-07-22 03:16:00,76.8,74.6,29.85,WSW,239,0.0,0.0,93,0.00,,---,0.00,VWS V14.01,2013-07-22 07:16:00,
2013-07-22 03:21:00,76.7,74.2,29.85,WSW,239,0.0,0.0,92,0.00,,---,0.00,VWS V14.01,2013-07-22 07:21:00,
2013-07-22 03:26:00,76.7,74.2,29.85,WSW,239,0.0,0.0,92,0.00,,---,0.00,VWS V14.01,2013-07-22 07:26:00,
2013-07-22 03:31:00,76.7,74.5,29.85,WSW,239,0.0,0.0,93,0.00,,---,0.00,VWS V14.01,2013-07-22 07:31:00,
2013-07-22 03:36:00,76.5,74.0,29.85,WSW,239,0.0,0.0,92,0.00,,---,0.00,VWS V14.01,2013-07-22 07:36:00,
2013-07-22 03:41:00,76.5,74.0,29.85,WSW,239,0.0,0.0,92,0.00,,---,0.00,VWS V14.01,2013-07-22 07:41:00,
2013-07-22 03:46:00,76.5,74.0,29.85,WSW,239,0.0,0.0,92,0.00,,---,0.00,VWS V14.01,2013-07-22 07:46:00,
2013-07-22 03:51:00,76.3,73.8,29.84,WSW,239,0.0,0.0,92,0.00,,---,0.00,VWS V14.01,2013-07-22 07:51:00,
2013-07-22 03:56:00,76.3,74.1,29.84,WSW,239,0.0,0.0,93,0.00,,---,0.00,VWS V14.01,2013-07-22 07:56:00,
2013-07-22 04:01:00,76.3,74.1,29.84,WSW,239,0.0,0.0,93,0.00,,---,0.00,VWS V14.01,2013-07-22 08:01:00,
2013-07-22 04:06:00,76.1,73.6,29.84,WSW,239,0.0,0.0,92,0.00,,---,0.00,VWS V14.01,2013-07-22 08:06:00,
2013-07-22 04:11:00,76.1,73.6,29.84,WSW,239,0.0,0.0,92,0.00,,---,0.00,VWS V14.01,2013-07-22 08:11:00,
2013-07-22 04:16:00,76.0,73.2,29.84,WSW,239,0.0,0.0,91,0.00,,---,0.00,VWS V14.01,2013-07-22 08:16:00,
2013-07-22 04:21:00,76.0,73.5,29.84,WSW,239,0.0,0.0,92,0.00,,---,0.00,VWS V14.01,2013-07-22 08:21:00,
2013-07-22 04:26:00,76.0,73.5,29.84,WSW,239,0.0,0.0,92,0.00,,---,0.00,VWS V14.01,2013-07-22 08:26:00,
2013-07-22 04:31:00,76.0,73.8,29.84,WSW,239,0.0,0.0,93,0.00,,---,0.00,VWS V14.01,2013-07-22 08:31:00,
2013-07-22 04:36:00,75.8,73.6,29.84,WSW,239,0.0,0.0,93,0.00,,---,0.00,VWS V14.01,2013-07-22 08:36:00,
2013-07-22 04:41:00,75.8,73.6,29.84,WSW,239,0.0,0.0,93,0.00,,---,0.00,VWS V14.01,2013-07-22 08:41:00,
2013-07-22 04:46:00,75.8,73.6,29.84,WSW,239,0.0,0.0,93,0.00,,---,0.00,VWS V14.01,2013-07-22 08:46:00,
2013-07-22 04:51:00,75.6,73.4,29.85,WSW,239,0.0,0.0,93,0.00,,---,0.00,VWS V14.01,2013-07-22 08:51:00,
2013-07-22 04:56:00,75.6,73.4,29.85,WSW,239,0.0,0.0,93,0.00,,---,0.00,VWS V14.01,2013-07-22 08:56:00,
2013-07-22 05:01:00,75.6,73.8,29.85,WSW,239,0.0,0.0,94,0.00,,---,0.00,VWS V14.01,2013-07-22 09:01:00,
2013-07-22 05:06:00,75.6,73.8,29.85,WSW,239,0.0,0.0,94,0.00,,---,0.00,VWS V14.01,2013-07-22 09:06:00,
2013-07-22 05:11:00,75.4,73.6,29.85,WSW,239,0.0,0.0,94,0.00,,---,0.00,VWS V14.01,2013-07-22 09:11:00,
2013-07-22 05:16:00,75.4,73.6,29.85,WSW,239,0.0,0.0,94,0.00,,---,0.00,VWS V14.01,2013-07-22 09:16:00,
2013-07-22 05:21:00,75.4,73.6,29.86,WSW,239,0.0,0.0,94,0.00,,---,0.00,VWS V14.01,2013-07-22 09:21:00,
2013-07-22 05:26:00,75.4,73.9,29.86,WSW,239,0.0,0.0,95,0.00,,---,0.00,VWS V14.01,2013-07-22 09:26:00,
2013-07-22 05:31:00,75.4,73.9,29.86,WSW,239,0.0,0.0,95,0.00,,---,0.00,VWS V14.01,2013-07-22 09:31:00,
2013-07-22 05:36:00,75.3,73.8,29.86,WSW,239,0.0,0.0,95,0.00,,---,0.00,VWS V14.01,2013-07-22 09:36:00,
2013-07-22 05:41:00,75.3,73.8,29.86,WSW,239,0.0,0.0,95,0.00,,---,0.00,VWS V14.01,2013-07-22 09:41:00,
2013-07-22 05:46:00,75.3,73.8,29.86,WSW,239,0.0,0.0,95,0.00,,---,0.00,VWS V14.01,2013-07-22 09:46:00,
2013-07-22 05:51:00,75.3,73.8,29.86,WSW,239,0.0,0.0,95,0.00,,---,0.00,VWS V14.01,2013-07-22 09:51:00,
2013-07-22 05:56:00,75.3,74.1,29.86,WSW,239,0.0,0.0,96,0.00,,---,0.00,VWS V14.01,2013-07-22 09:56:00,
2013-07-22 06:01:00,75.3,74.1,29.86,WSW,239,0.0,0.0,96,0.00,,---,0.00,VWS V14.01,2013-07-22 10:01:00,
2013-07-22 06:06:00,75.3,74.1,29.86,WSW,239,0.0,0.0,96,0.00,,---,0.00,VWS V14.01,2013-07-22 10:06:00,
2013-07-22 06:11:00,75.3,74.1,29.86,WSW,239,0.0,0.0,96,0.00,,---,0.00,VWS V14.01,2013-07-22 10:11:00,
2013-07-22 06:16:00,75.1,73.9,29.86,West,275,0.0,0.0,96,0.00,,---,0.00,VWS V14.01,2013-07-22 10:16:00,
2013-07-22 06:21:00,75.1,73.9,29.87,West,275,0.0,0.0,96,0.00,,---,0.00,VWS V14.01,2013-07-22 10:21:00,
2013-07-22 06:26:00,75.1,73.9,29.87,West,275,0.0,0.0,96,0.00,,---,0.00,VWS V14.01,2013-07-22 10:26:00,
2013-07-22 06:31:00,75.1,73.9,29.87,West,275,0.0,0.0,96,0.00,,---,0.00,VWS V14.01,2013-07-22 10:31:00,
2013-07-22 06:36:00,75.1,73.9,29.87,West,275,0.0,0.0,96,0.00,,---,0.00,VWS V14.01,2013-07-22 10:36:00,
2013-07-22 06:41:00,75.1,73.9,29.87,West,275,0.0,0.0,96,0.00,,---,0.00,VWS V14.01,2013-07-22 10:41:00,
2013-07-22 06:46:00,75.1,73.9,29.87,West,275,0.0,0.0,96,0.00,,---,0.00,VWS V14.01,2013-07-22 10:46:00,
2013-07-22 06:51:00,75.1,74.2,29.88,West,275,0.0,0.0,97,0.00,,---,0.00,VWS V14.01,2013-07-22 10:51:00,
2013-07-22 06:56:00,75.1,73.9,29.88,West,275,0.0,0.0,96,0.00,,---,0.00,VWS V14.01,2013-07-22 10:56:00,
2013-07-22 07:01:00,75.1,74.2,29.88,West,275,0.0,0.0,97,0.00,,---,0.00,VWS V14.01,2013-07-22 11:01:00,
2013-07-22 07:06:00,75.1,74.2,29.88,West,275,0.0,0.0,97,0.00,,---,0.00,VWS V14.01,2013-07-22 11:06:00,
2013-07-22 07:11:00,75.1,74.2,29.88,West,275,0.0,0.0,97,0.00,,---,0.00,VWS V14.01,2013-07-22 11:11:00,
2013-07-22 07:16:00,75.1,74.2,29.88,West,275,0.0,0.0,97,0.00,,---,0.00,VWS V14.01,2013-07-22 11:16:00,
2013-07-22 07:21:00,75.3,74.4,29.88,West,275,0.0,0.0,97,0.00,,---,0.00,VWS V14.01,2013-07-22 11:21:00,
2013-07-22 07:26:00,75.4,74.5,29.88,West,275,0.0,0.0,97,0.00,,---,0.00,VWS V14.01,2013-07-22 11:26:00,
2013-07-22 07:31:00,75.4,74.2,29.88,West,275,0.0,1.0,96,0.00,,---,0.00,VWS V14.01,2013-07-22 11:31:00,
2013-07-22 07:36:00,75.4,74.2,29.88,West,275,0.0,0.0,96,0.00,,---,0.00,VWS V14.01,2013-07-22 11:36:00,
2013-07-22 07:41:00,75.4,74.2,29.88,West,275,0.0,1.0,96,0.00,,---,0.00,VWS V14.01,2013-07-22 11:41:00,
2013-07-22 07:46:00,75.4,74.2,29.88,West,275,0.0,0.0,96,0.00,,---,0.00,VWS V14.01,2013-07-22 11:46:00,
2013-07-22 07:51:00,75.4,74.2,29.88,West,272,0.0,0.0,96,0.00,,---,0.00,VWS V14.01,2013-07-22 11:51:00,
2013-07-22 07:56:00,75.6,74.4,29.88,West,272,0.0,0.0,96,0.00,,---,0.00,VWS V14.01,2013-07-22 11:56:00,
2013-07-22 08:01:00,75.6,74.4,29.88,West,272,0.0,0.0,96,0.00,,---,0.00,VWS V14.01,2013-07-22 12:01:00,
2013-07-22 08:06:00,75.8,74.6,29.88,West,272,0.0,0.0,96,0.00,,---,0.00,VWS V14.01,2013-07-22 12:06:00,
2013-07-22 08:11:00,75.8,74.6,29.88,West,272,0.0,0.0,96,0.00,,---,0.00,VWS V14.01,2013-07-22 12:11:00,
2013-07-22 08:16:00,76.0,74.8,29.88,SSE,155,0.0,0.0,96,0.00,,---,0.00,VWS V14.01,2013-07-22 12:16:00,
2013-07-22 08:21:00,76.0,74.5,29.88,SSW,205,0.0,0.0,95,0.00,,---,0.00,VWS V14.01,2013-07-22 12:21:00,
2013-07-22 08:26:00,76.1,74.6,29.88,West,263,0.0,0.0,95,0.00,,---,0.00,VWS V14.01,2013-07-22 12:26:00,
2013-07-22 08:31:00,76.1,74.6,29.88,SW,236,0.0,0.0,95,0.00,,---,0.00,VWS V14.01,2013-07-22 12:31:00,
2013-07-22 08:36:00,76.3,74.8,29.88,North,350,0.0,0.0,95,0.00,,---,0.00,VWS V14.01,2013-07-22 12:36:00,
2013-07-22 08:41:00,76.5,74.7,29.88,North,350,0.0,0.0,94,0.00,,---,0.00,VWS V14.01,2013-07-22 12:41:00,
2013-07-22 08:46:00,76.5,74.7,29.88,SW,234,0.0,0.0,94,0.00,,---,0.00,VWS V14.01,2013-07-22 12:46:00,
2013-07-22 08:51:00,76.7,74.5,29.89,SW,215,0.0,0.0,93,0.00,,---,0.00,VWS V14.01,2013-07-22 12:51:00,
2013-07-22 08:56:00,76.8,74.6,29.89,SSW,202,0.0,0.0,93,0.00,,---,0.00,VWS V14.01,2013-07-22 12:56:00,
2013-07-22 09:01:00,77.0,74.5,29.89,SSW,202,0.0,0.0,92,0.00,,---,0.00,VWS V14.01,2013-07-22 13:01:00,
2013-07-22 09:06:00,77.2,74.7,29.89,SSW,198,0.0,0.0,92,0.00,,---,0.00,VWS V14.01,2013-07-22 13:06:00,
2013-07-22 09:11:00,77.4,74.6,29.89,SSE,168,0.0,0.0,91,0.00,,---,0.00,VWS V14.01,2013-07-22 13:11:00,
2013-07-22 09:15:00,77.6,74.8,29.89,SW,226,0.0,0.0,91,0.00,,---,0.00,VWS V14.01,2013-07-22 13:15:00,
2013-07-22 09:20:00,77.7,74.5,29.89,WSW,253,0.0,0.0,90,0.00,,---,0.00,VWS V14.01,2013-07-22 13:20:00,
2013-07-22 09:25:00,77.9,74.7,29.89,SSW,205,0.0,1.0,90,0.00,,---,0.00,VWS V14.01,2013-07-22 13:25:00,
2013-07-22 09:30:00,78.1,74.9,29.89,SSW,205,0.0,1.0,90,0.00,,---,0.00,VWS V14.01,2013-07-22 13:30:00,
2013-07-22 09:36:00,78.3,75.1,29.89,NNW,328,0.0,2.0,90,0.00,,---,0.00,VWS V14.01,2013-07-22 13:36:00,
2013-07-22 09:41:00,78.3,75.1,29.89,SE,126,0.0,2.0,90,0.00,,---,0.00,VWS V14.01,2013-07-22 13:41:00,
2013-07-22 09:46:00,78.5,75.3,29.89,SW,223,0.0,0.0,90,0.00,,---,0.00,VWS V14.01,2013-07-22 13:46:00,
2013-07-22 09:51:00,78.6,75.1,29.89,SW,223,0.0,0.0,89,0.00,,---,0.00,VWS V14.01,2013-07-22 13:51:00,
2013-07-22 09:56:00,78.8,75.3,29.89,SW,223,0.0,3.0,89,0.00,,---,0.00,VWS V14.01,2013-07-22 13:56:00,
2013-07-22 10:01:00,78.8,74.9,29.89,WSW,250,0.0,3.0,88,0.00,,---,0.00,VWS V14.01,2013-07-22 14:01:00,
2013-07-22 10:06:00,79.0,75.5,29.89,NNW,335,0.0,0.0,89,0.00,,---,0.00,VWS V14.01,2013-07-22 14:06:00,
2013-07-22 10:11:00,79.0,75.5,29.89,South,185,0.0,0.0,89,0.00,,---,0.00,VWS V14.01,2013-07-22 14:11:00,
2013-07-22 10:16:00,79.2,75.0,29.89,SW,227,0.0,2.0,87,0.00,,---,0.00,VWS V14.01,2013-07-22 14:16:00,
2013-07-22 10:21:00,79.2,75.0,29.89,WSW,258,0.0,3.0,87,0.00,,---,0.00,VWS V14.01,2013-07-22 14:21:00,
2013-07-22 10:26:00,79.2,75.0,29.89,NNW,336,0.0,0.0,87,0.00,,---,0.00,VWS V14.01,2013-07-22 14:26:00,
2013-07-22 10:31:00,79.2,75.0,29.89,NNW,337,0.0,1.0,87,0.00,,---,0.00,VWS V14.01,2013-07-22 14:31:00,
2013-07-22 10:36:00,79.2,75.3,29.90,WNW,285,0.0,0.0,88,0.00,,---,0.00,VWS V14.01,2013-07-22 14:36:00,
2013-07-22 10:41:00,79.2,75.3,29.90,WNW,285,0.0,0.0,88,0.00,,---,0.00,VWS V14.01,2013-07-22 14:41:00,
2013-07-22 10:46:00,79.4,75.5,29.90,NE,44,0.0,1.0,88,0.00,,---,0.00,VWS V14.01,2013-07-22 14:46:00,
2013-07-22 10:51:00,79.6,75.4,29.89,West,265,0.0,5.0,87,0.00,,---,0.00,VWS V14.01,2013-07-22 14:51:00,
2013-07-22 10:56:00,79.8,75.6,29.89,SW,230,0.0,0.0,87,0.00,,---,0.00,VWS V14.01,2013-07-22 14:56:00,
2013-07-22 11:01:00,79.8,75.6,29.89,SW,230,0.0,0.0,87,0.00,,---,0.00,VWS V14.01,2013-07-22 15:01:00,
2013-07-22 11:06:00,79.9,76.0,29.90,West,268,0.0,3.0,88,0.00,,---,0.00,VWS V14.01,2013-07-22 15:06:00,
2013-07-22 11:11:00,80.1,76.2,29.90,West,267,0.0,3.0,88,0.00,,---,0.00,VWS V14.01,2013-07-22 15:11:00,
2013-07-22 11:16:00,80.3,76.1,29.90,North,357,0.0,0.0,87,0.00,,---,0.00,VWS V14.01,2013-07-22 15:16:00,
2013-07-22 11:21:00,80.3,75.7,29.89,NW,325,0.0,0.0,86,0.00,,---,0.00,VWS V14.01,2013-07-22 15:21:00,
2013-07-22 11:26:00,80.3,75.7,29.89,WNW,294,0.0,0.0,86,0.00,,---,0.00,VWS V14.01,2013-07-22 15:26:00,
2013-07-22 11:31:00,80.5,76.3,29.89,SE,130,0.0,0.0,87,0.00,,---,0.00,VWS V14.01,2013-07-22 15:31:00,
2013-07-22 11:36:00,80.7,76.5,29.89,SE,130,0.0,0.0,87,0.00,,---,0.00,VWS V14.01,2013-07-22 15:36:00,
2013-07-22 11:41:00,80.9,76.0,29.89,NE,38,0.0,3.0,85,0.00,,---,0.00,VWS V14.01,2013-07-22 15:41:00,
2013-07-22 11:46:00,80.9,76.0,29.89,South,186,0.0,0.0,85,0.00,,---,0.00,VWS V14.01,2013-07-22 15:46:00,
2013-07-22 11:51:00,81.1,75.8,29.89,WSW,248,0.0,4.0,84,0.00,,---,0.00,VWS V14.01,2013-07-22 15:51:00,
2013-07-22 11:56:00,81.1,76.2,29.89,WSW,248,0.0,1.0,85,0.00,,---,0.00,VWS V14.01,2013-07-22 15:56:00,
2013-07-22 12:01:00,81.1,75.8,29.89,SW,217,0.0,3.0,84,0.00,,---,0.00,VWS V14.01,2013-07-22 16:01:00,
2013-07-22 12:06:00,81.1,76.2,29.89,SSW,206,0.0,1.0,85,0.00,,---,0.00,VWS V14.01,2013-07-22 16:06:00,
2013-07-22 12:11:00,81.1,76.5,29.89,SSW,205,0.0,1.0,86,0.00,,---,0.00,VWS V14.01,2013-07-22 16:11:00,
2013-07-22 12:16:00,81.1,76.2,29.89,SSW,203,0.0,0.0,85,0.00,,---,0.00,VWS V14.01,2013-07-22 16:16:00,
2013-07-22 12:21:00,81.2,75.9,29.88,SSW,203,0.0,0.0,84,0.00,,---,0.00,VWS V14.01,2013-07-22 16:21:00,
2013-07-22 12:26:00,81.4,76.1,29.88,South,185,0.0,0.0,84,0.00,,---,0.00,VWS V14.01,2013-07-22 16:26:00,
2013-07-22 12:31:00,81.6,75.9,29.88,SSW,209,0.0,0.0,83,0.00,,---,0.00,VWS V14.01,2013-07-22 16:31:00,
2013-07-22 12:36:00,81.6,75.9,29.88,SW,232,0.0,3.0,83,0.00,,---,0.00,VWS V14.01,2013-07-22 16:36:00,
2013-07-22 12:41:00,82.0,76.3,29.88,WSW,240,0.0,3.0,83,0.00,,---,0.00,VWS V14.01,2013-07-22 16:41:00,
2013-07-22 12:46:00,82.2,75.0,29.88,SSW,209,0.0,0.0,79,0.00,,---,0.00,VWS V14.01,2013-07-22 16:46:00,
2013-07-22 12:51:00,82.4,76.0,29.88,NNW,332,0.0,2.0,81,0.00,,---,0.00,VWS V14.01,2013-07-22 16:51:00,
2013-07-22 12:56:00,82.8,76.8,29.88,East,93,0.0,0.0,82,0.00,,---,0.00,VWS V14.01,2013-07-22 16:56:00,
2013-07-22 13:01:00,83.2,75.6,29.88,South,176,0.0,4.0,78,0.00,,---,0.00,VWS V14.01,2013-07-22 17:01:00,
2013-07-22 13:06:00,83.8,77.0,29.87,South,176,1.0,1.0,80,0.00,,---,0.00,VWS V14.01,2013-07-22 17:06:00,
2013-07-22 13:11:00,84.3,76.7,29.87,ESE,109,0.0,1.0,78,0.00,,---,0.00,VWS V14.01,2013-07-22 17:11:00,
2013-07-22 13:16:00,84.7,77.1,29.87,WSW,247,0.0,3.0,78,0.00,,---,0.00,VWS V14.01,2013-07-22 17:16:00,
2013-07-22 13:21:00,85.1,75.5,29.86,NE,55,0.0,3.0,73,0.00,,---,0.00,VWS V14.01,2013-07-22 17:21:00,
2013-07-22 13:26:00,85.3,76.1,29.86,NW,306,0.0,2.0,74,0.00,,---,0.00,VWS V14.01,2013-07-22 17:26:00,
2013-07-22 13:31:00,85.5,77.1,29.86,NE,45,0.0,2.0,76,0.00,,---,0.00,VWS V14.01,2013-07-22 17:31:00,
2013-07-22 13:36:00,85.7,76.1,29.86,SSW,208,0.0,1.0,73,0.00,,---,0.00,VWS V14.01,2013-07-22 17:36:00,
2013-07-22 13:41:00,86.3,77.0,29.86,North,6,0.0,3.0,74,0.00,,---,0.00,VWS V14.01,2013-07-22 17:41:00,
2013-07-22 13:46:00,86.3,76.6,29.86,North,0,0.0,0.0,73,0.00,,---,0.00,VWS V14.01,2013-07-22 17:46:00,
2013-07-22 13:51:00,86.5,77.6,29.86,North,0,0.0,0.0,75,0.00,,---,0.00,VWS V14.01,2013-07-22 17:51:00,
2013-07-22 13:56:00,87.0,77.3,29.86,NNW,336,0.0,1.0,73,0.00,,---,0.00,VWS V14.01,2013-07-22 17:56:00,
2013-07-22 14:01:00,87.4,76.8,29.86,SW,223,0.0,1.0,71,0.00,,---,0.00,VWS V14.01,2013-07-22 18:01:00,
2013-07-22 14:06:00,87.2,76.2,29.85,West,278,0.0,1.0,70,0.00,,---,0.00,VWS V14.01,2013-07-22 18:06:00,
2013-07-22 14:11:00,87.2,77.1,29.85,ENE,71,0.0,1.0,72,0.00,,---,0.00,VWS V14.01,2013-07-22 18:11:00,
2013-07-22 14:16:00,87.4,77.7,29.85,WNW,285,0.0,0.0,73,0.00,,---,0.00,VWS V14.01,2013-07-22 18:16:00,
2013-07-22 14:21:00,87.4,76.4,29.85,NW,309,0.0,3.0,70,0.00,,---,0.00,VWS V14.01,2013-07-22 18:21:00,
2013-07-22 14:27:00,87.2,76.7,29.85,West,264,0.0,0.0,71,0.00,,---,0.00,VWS V14.01,2013-07-22 18:27:00,
2013-07-22 14:32:00,87.0,76.0,29.84,SW,222,0.0,5.0,70,0.00,,---,0.00,VWS V14.01,2013-07-22 18:32:00,
2013-07-22 14:37:00,87.0,76.9,29.84,NNW,335,0.0,2.0,72,0.00,,---,0.00,VWS V14.01,2013-07-22 18:37:00,
2013-07-22 14:42:00,86.7,76.6,29.84,NW,313,0.0,2.0,72,0.00,,---,0.00,VWS V14.01,2013-07-22 18:42:00,
2013-07-22 14:47:00,86.7,77.0,29.84,NW,319,1.0,1.0,73,0.00,,---,0.00,VWS V14.01,2013-07-22 18:47:00,
2013-07-22 14:52:00,86.7,76.2,29.84,SSW,202,0.0,1.0,71,0.00,,---,0.00,VWS V14.01,2013-07-22 18:52:00,
2013-07-22 14:57:00,87.0,76.5,29.84,North,0,0.0,5.0,71,0.00,,---,0.00,VWS V14.01,2013-07-22 18:57:00,
2013-07-22 15:02:00,86.7,76.2,29.84,WSW,248,0.0,5.0,71,0.00,,---,0.00,VWS V14.01,2013-07-22 19:02:00,
2013-07-22 15:07:00,86.5,76.0,29.84,South,186,0.0,2.0,71,0.00,,---,0.00,VWS V14.01,2013-07-22 19:07:00,
2013-07-22 15:12:00,86.5,76.0,29.84,ESE,106,0.0,2.0,71,0.00,,---,0.00,VWS V14.01,2013-07-22 19:12:00,
2013-07-22 15:18:00,86.5,75.6,29.83,NW,323,1.0,1.0,70,0.00,,---,0.00,VWS V14.01,2013-07-22 19:18:00,
2013-07-22 15:23:00,86.5,74.7,29.83,SW,227,0.0,0.0,68,0.00,,---,0.00,VWS V14.01,2013-07-22 19:23:00,
2013-07-22 15:28:00,86.5,75.6,29.83,WSW,240,0.0,1.0,70,0.00,,---,0.00,VWS V14.01,2013-07-22 19:28:00,
2013-07-22 15:33:00,86.5,75.6,29.82,SW,223,0.0,0.0,70,0.00,,---,0.00,VWS V14.01,2013-07-22 19:33:00,
2013-07-22 15:38:00,86.5,76.0,29.82,ESE,109,0.0,1.0,71,0.00,,---,0.00,VWS V14.01,2013-07-22 19:38:00,
2013-07-22 15:43:00,86.5,76.0,29.82,West,265,0.0,0.0,71,0.00,,---,0.00,VWS V14.01,2013-07-22 19:43:00,
2013-07-22 15:48:00,86.7,76.6,29.82,WNW,282,0.0,0.0,72,0.00,,---,0.00,VWS V14.01,2013-07-22 19:48:00,
2013-07-22 15:53:00,86.7,76.6,29.82,SW,219,0.0,0.0,72,0.00,,---,0.00,VWS V14.01,2013-07-22 19:53:00,
2013-07-22 15:58:00,86.7,76.6,29.82,SSW,212,0.0,3.0,72,0.00,,---,0.00,VWS V14.01,2013-07-22 19:58:00,
2013-07-22 16:03:00,87.0,75.6,29.81,West,260,0.0,1.0,69,0.00,,---,0.00,VWS V14.01,2013-07-22 20:03:00,
2013-07-22 16:08:00,87.2,75.8,29.81,NNW,337,0.0,2.0,69,0.00,,---,0.00,VWS V14.01,2013-07-22 20:08:00,
2013-07-22 16:14:00,87.2,76.2,29.81,SW,223,0.0,0.0,70,0.00,,---,0.00,VWS V14.01,2013-07-22 20:14:00,
2013-07-22 16:16:00,87.2,77.1,29.81,WSW,258,0.0,0.0,72,0.00,,---,0.00,VWS V14.01,2013-07-22 20:16:00,
2013-07-22 16:17:00,87.2,77.1,29.81,WSW,258,0.0,0.0,72,0.00,,---,0.00,VWS V14.01,2013-07-22 20:17:00,
2013-07-22 16:22:00,87.2,76.7,29.81,NW,315,0.0,7.0,71,0.00,,---,0.00,VWS V14.01,2013-07-22 20:22:00,
2013-07-22 16:27:00,87.2,76.2,29.81,NW,315,0.0,0.0,70,0.00,,---,0.00,VWS V14.01,2013-07-22 20:27:00,
2013-07-22 16:32:00,87.2,75.8,29.81,WNW,291,0.0,2.0,69,0.00,,---,0.00,VWS V14.01,2013-07-22 20:32:00,
2013-07-22 16:37:00,87.2,75.8,29.81,SE,127,0.0,1.0,69,0.00,,---,0.00,VWS V14.01,2013-07-22 20:37:00,
2013-07-22 16:42:00,87.2,76.2,29.81,North,357,0.0,4.0,70,0.00,,---,0.00,VWS V14.01,2013-07-22 20:42:00,
2013-07-22 16:43:00,87.2,75.4,29.81,SW,230,0.0,4.0,68,0.00,,---,0.00,VWS V14.01,2013-07-22 20:43:00,
2013-07-22 16:48:00,87.0,76.0,29.80,NNW,340,1.0,7.0,70,0.00,,---,0.00,VWS V14.01,2013-07-22 20:48:00,
2013-07-22 16:53:00,87.0,76.0,29.80,NW,316,0.0,7.0,70,0.00,,---,0.00,VWS V14.01,2013-07-22 20:53:00,
2013-07-22 16:58:00,86.7,74.4,29.80,SW,233,1.0,5.0,67,0.00,,---,0.00,VWS V14.01,2013-07-22 20:58:00,
2013-07-22 17:03:00,86.7,74.4,29.80,SW,232,0.0,0.0,67,0.00,,---,0.00,VWS V14.01,2013-07-22 21:03:00,
2013-07-22 17:08:00,86.7,76.2,29.80,SSW,206,0.0,7.0,71,0.00,,---,0.00,VWS V14.01,2013-07-22 21:08:00,
2013-07-22 17:13:00,86.7,74.4,29.80,SSW,208,0.0,0.0,67,0.00,,---,0.00,VWS V14.01,2013-07-22 21:13:00,
2013-07-22 17:18:00,86.7,75.3,29.79,WNW,291,0.0,3.0,69,0.00,,---,0.00,VWS V14.01,2013-07-22 21:18:00,
2013-07-22 17:23:00,86.7,75.3,29.79,SW,226,0.0,0.0,69,0.00,,---,0.00,VWS V14.01,2013-07-22 21:23:00,
2013-07-22 17:28:00,86.7,76.2,29.79,WNW,301,2.0,4.0,71,0.00,,---,0.00,VWS V14.01,2013-07-22 21:28:00,
2013-07-22 17:33:00,86.7,75.3,29.80,WSW,250,0.0,0.0,69,0.00,,---,0.00,VWS V14.01,2013-07-22 21:33:00,
2013-07-22 17:38:00,86.5,76.0,29.80,South,179,0.0,8.0,71,0.00,,---,0.00,VWS V14.01,2013-07-22 21:38:00,
2013-07-22 17:43:00,86.5,76.0,29.80,SSE,147,0.0,5.0,71,0.00,,---,0.00,VWS V14.01,2013-07-22 21:43:00,
2013-07-22 17:48:00,86.3,76.2,29.79,WNW,298,0.0,5.0,72,0.00,,---,0.00,VWS V14.01,2013-07-22 21:48:00,
2013-07-22 17:53:00,86.1,75.6,29.79,SW,233,0.0,0.0,71,0.00,,---,0.00,VWS V14.01,2013-07-22 21:53:00,
2013-07-22 17:58:00,86.1,76.4,29.79,South,186,0.0,1.0,73,0.00,,---,0.00,VWS V14.01,2013-07-22 21:58:00,
2013-07-22 18:03:00,85.9,76.2,29.79,West,277,0.0,0.0,73,0.00,,---,0.00,VWS V14.01,2013-07-22 22:03:00,
2013-07-22 18:08:00,85.9,75.8,29.79,WSW,258,3.0,4.0,72,0.00,,---,0.00,VWS V14.01,2013-07-22 22:08:00,
2013-07-22 18:13:00,85.9,75.8,29.79,WNW,289,0.0,0.0,72,0.00,,---,0.00,VWS V14.01,2013-07-22 22:13:00,
2013-07-22 18:18:00,85.9,75.8,29.79,NNW,328,0.0,3.0,72,0.00,,---,0.00,VWS V14.01,2013-07-22 22:18:00,
2013-07-22 18:23:00,86.1,76.4,29.79,West,280,0.0,0.0,73,0.00,,---,0.00,VWS V14.01,2013-07-22 22:23:00,
2013-07-22 18:28:00,86.1,76.8,29.79,SSW,208,0.0,6.0,74,0.00,,---,0.00,VWS V14.01,2013-07-22 22:28:00,
2013-07-22 18:33:00,85.9,75.8,29.79,SW,232,0.0,0.0,72,0.00,,---,0.00,VWS V14.01,2013-07-22 22:33:00,
2013-07-22 18:38:00,85.7,75.2,29.79,SW,220,0.0,4.0,71,0.00,,---,0.00,VWS V14.01,2013-07-22 22:38:00,
2013-07-22 18:43:00,85.7,75.6,29.79,NW,325,0.0,0.0,72,0.00,,---,0.00,VWS V14.01,2013-07-22 22:43:00,
2013-07-22 18:48:00,85.5,76.3,29.79,West,281,0.0,7.0,74,0.00,,---,0.00,VWS V14.01,2013-07-22 22:48:00,
2013-07-22 18:53:00,85.3,75.2,29.79,SW,229,2.0,2.0,72,0.00,,---,0.00,VWS V14.01,2013-07-22 22:53:00,
2013-07-22 18:58:00,85.1,75.5,29.79,West,281,0.0,2.0,73,0.00,,---,0.00,VWS V14.01,2013-07-22 22:58:00,
2013-07-22 19:03:00,85.1,75.1,29.79,North,11,0.0,0.0,72,0.00,,---,0.00,VWS V14.01,2013-07-22 23:03:00,
2013-07-22 19:08:00,84.9,75.3,29.79,West,280,0.0,3.0,73,0.00,,---,0.00,VWS V14.01,2013-07-22 23:08:00,
2013-07-22 19:13:00,84.9,75.7,29.79,WNW,296,0.0,1.0,74,0.00,,---,0.00,VWS V14.01,2013-07-22 23:13:00,
2013-07-22 19:18:00,84.7,75.1,29.79,NW,311,0.0,1.0,73,0.00,,---,0.00,VWS V14.01,2013-07-22 23:18:00,
2013-07-22 19:23:00,84.7,75.9,29.79,NW,312,0.0,0.0,75,0.00,,---,0.00,VWS V14.01,2013-07-22 23:23:00,
2013-07-22 19:28:00,84.5,74.9,29.79,WSW,248,1.0,3.0,73,0.00,,---,0.00,VWS V14.01,2013-07-22 23:28:00,
2013-07-22 19:33:00,84.5,74.9,29.79,SW,233,0.0,0.0,73,0.00,,---,0.00,VWS V14.01,2013-07-22 23:33:00,
2013-07-22 19:38:00,84.5,74.9,29.79,WNW,298,0.0,3.0,73,0.00,,---,0.00,VWS V14.01,2013-07-22 23:38:00,
2013-07-22 19:43:00,84.3,75.1,29.79,WNW,298,0.0,0.0,74,0.00,,---,0.00,VWS V14.01,2013-07-22 23:43:00,
2013-07-22 19:48:00,84.3,75.1,29.79,WNW,295,0.0,5.0,74,0.00,,---,0.00,VWS V14.01,2013-07-22 23:48:00,
2013-07-22 19:53:00,84.1,74.5,29.79,WNW,295,0.0,0.0,73,0.00,,---,0.00,VWS V14.01,2013-07-22 23:53:00,
2013-07-22 19:58:00,84.1,74.5,29.79,WSW,248,0.0,2.0,73,0.00,,---,0.00,VWS V14.01,2013-07-22 23:58:00,
2013-07-22 20:03:00,84.0,74.4,29.79,WNW,287,0.0,0.0,73,0.00,,---,0.00,VWS V14.01,2013-07-23 00:03:00,
2013-07-22 20:08:00,84.0,74.8,29.79,West,271,0.0,2.0,74,0.00,,---,0.00,VWS V14.01,2013-07-23 00:08:00,
2013-07-22 20:13:00,83.8,74.6,29.79,NNW,337,0.0,1.0,74,0.00,,---,0.00,VWS V14.01,2013-07-23 00:13:00,
2013-07-22 20:18:00,83.8,74.6,29.78,WSW,254,0.0,1.0,74,0.00,,---,0.00,VWS V14.01,2013-07-23 00:18:00,
2013-07-22 20:23:00,83.6,74.4,29.78,NNW,343,0.0,0.0,74,0.00,,---,0.00,VWS V14.01,2013-07-23 00:23:00,
2013-07-22 20:28:00,83.4,74.7,29.78,NNW,343,0.0,0.0,75,0.00,,---,0.00,VWS V14.01,2013-07-23 00:28:00,
2013-07-22 20:33:00,83.4,75.1,29.78,NNW,343,0.0,0.0,76,0.00,,---,0.00,VWS V14.01,2013-07-23 00:33:00,
2013-07-22 20:38:00,83.2,74.8,29.78,NNW,343,0.0,0.0,76,0.00,,---,0.00,VWS V14.01,2013-07-23 00:38:00,
2013-07-22 20:43:00,83.0,75.1,29.78,NNW,343,0.0,0.0,77,0.00,,---,0.00,VWS V14.01,2013-07-23 00:43:00,
2013-07-22 20:48:00,83.0,75.4,29.78,NW,315,0.0,2.0,78,0.00,,---,0.00,VWS V14.01,2013-07-23 00:48:00,
2013-07-22 20:53:00,82.8,74.9,29.78,NW,315,0.0,0.0,77,0.00,,---,0.00,VWS V14.01,2013-07-23 00:53:00,
2013-07-22 20:58:00,82.6,75.1,29.78,NW,315,0.0,0.0,78,0.00,,---,0.00,VWS V14.01,2013-07-23 00:58:00,
2013-07-22 21:03:00,82.6,75.1,29.78,NW,315,0.0,0.0,78,0.00,,---,0.00,VWS V14.01,2013-07-23 01:03:00,
2013-07-22 21:08:00,82.4,75.2,29.78,NW,315,0.0,0.0,79,0.00,,---,0.00,VWS V14.01,2013-07-23 01:08:00,
2013-07-22 21:13:00,82.4,75.2,29.78,NW,315,0.0,0.0,79,0.00,,---,0.00,VWS V14.01,2013-07-23 01:13:00,
2013-07-22 21:18:00,82.2,75.0,29.79,NW,315,0.0,0.0,79,0.00,,---,0.00,VWS V14.01,2013-07-23 01:18:00,
2013-07-22 21:23:00,82.2,75.4,29.79,NW,315,0.0,0.0,80,0.00,,---,0.00,VWS V14.01,2013-07-23 01:23:00,
2013-07-22 21:28:00,82.0,75.2,29.79,North,350,0.0,0.0,80,0.00,,---,0.00,VWS V14.01,2013-07-23 01:28:00,
2013-07-22 21:33:00,81.8,75.0,29.79,NNW,347,0.0,0.0,80,0.00,,---,0.00,VWS V14.01,2013-07-23 01:33:00,
2013-07-22 21:38:00,81.8,75.0,29.79,NNW,347,0.0,0.0,80,0.00,,---,0.00,VWS V14.01,2013-07-23 01:38:00,
2013-07-22 21:43:00,81.6,74.8,29.79,NNW,347,0.0,0.0,80,0.00,,---,0.00,VWS V14.01,2013-07-23 01:43:00,
2013-07-22 21:48:00,81.6,75.2,29.80,NNW,347,0.0,0.0,81,0.00,,---,0.00,VWS V14.01,2013-07-23 01:48:00,
2013-07-22 21:53:00,81.4,75.0,29.80,NNW,347,0.0,0.0,81,0.00,,---,0.00,VWS V14.01,2013-07-23 01:53:00,
2013-07-22 21:58:00,81.4,75.0,29.80,NNW,347,0.0,0.0,81,0.00,,---,0.00,VWS V14.01,2013-07-23 01:58:00,
2013-07-22 22:03:00,81.2,74.8,29.80,NNW,347,0.0,0.0,81,0.00,,---,0.00,VWS V14.01,2013-07-23 02:03:00,
2013-07-22 22:08:00,81.2,74.8,29.80,NNW,347,0.0,0.0,81,0.00,,---,0.00,VWS V14.01,2013-07-23 02:08:00,
2013-07-22 22:13:00,81.1,75.1,29.80,NNW,347,0.0,0.0,82,0.00,,---,0.00,VWS V14.01,2013-07-23 02:13:00,
2013-07-22 22:18:00,81.1,75.1,29.80,NNW,347,0.0,0.0,82,0.00,,---,0.00,VWS V14.01,2013-07-23 02:18:00,
2013-07-22 22:23:00,80.9,74.9,29.80,NNW,347,0.0,0.0,82,0.00,,---,0.00,VWS V14.01,2013-07-23 02:23:00,
2013-07-22 22:28:00,80.7,74.7,29.80,NNW,347,0.0,0.0,82,0.00,,---,0.00,VWS V14.01,2013-07-23 02:28:00,
2013-07-22 22:33:00,80.7,74.7,29.81,NNW,347,0.0,0.0,82,0.00,,---,0.00,VWS V14.01,2013-07-23 02:33:00,
2013-07-22 22:38:00,80.7,75.1,29.81,NNW,347,0.0,0.0,83,0.00,,---,0.00,VWS V14.01,2013-07-23 02:38:00,
2013-07-22 22:43:00,80.5,74.9,29.81,NNW,347,0.0,0.0,83,0.00,,---,0.00,VWS V14.01,2013-07-23 02:43:00,
2013-07-22 22:48:00,80.5,74.9,29.81,NNW,347,0.0,0.0,83,0.00,,---,0.00,VWS V14.01,2013-07-23 02:48:00,
2013-07-22 22:53:00,80.3,74.7,29.81,NNW,347,0.0,0.0,83,0.00,,---,0.00,VWS V14.01,2013-07-23 02:53:00,
2013-07-22 22:58:00,80.3,74.7,29.81,NNW,347,0.0,0.0,83,0.00,,---,0.00,VWS V14.01,2013-07-23 02:58:00,
2013-07-22 23:03:00,80.1,74.5,29.82,NNW,347,0.0,0.0,83,0.00,,---,0.00,VWS V14.01,2013-07-23 03:03:00,
2013-07-22 23:08:00,80.1,74.5,29.82,NNW,347,0.0,0.0,83,0.00,,---,0.00,VWS V14.01,2013-07-23 03:08:00,
2013-07-22 23:13:00,79.9,74.6,29.82,WSW,257,0.0,0.0,84,0.00,,---,0.00,VWS V14.01,2013-07-23 03:13:00,
2013-07-22 23:18:00,79.8,74.5,29.82,NNW,346,0.0,0.0,84,0.00,,---,0.00,VWS V14.01,2013-07-23 03:18:00,
2013-07-22 23:23:00,79.8,74.2,29.82,NNW,346,0.0,0.0,83,0.00,,---,0.00,VWS V14.01,2013-07-23 03:23:00,
2013-07-22 23:28:00,79.8,74.5,29.82,WNW,285,0.0,0.0,84,0.00,,---,0.00,VWS V14.01,2013-07-23 03:28:00,
2013-07-22 23:33:00,79.6,74.3,29.82,NW,319,0.0,0.0,84,0.00,,---,0.00,VWS V14.01,2013-07-23 03:33:00,
2013-07-22 23:38:00,79.6,74.3,29.82,NW,319,0.0,0.0,84,0.00,,---,0.00,VWS V14.01,2013-07-23 03:38:00,
2013-07-22 23:43:00,79.4,74.5,29.82,NW,319,0.0,0.0,85,0.00,,---,0.00,VWS V14.01,2013-07-23 03:43:00,
2013-07-22 23:48:00,79.4,74.2,29.82,NW,319,0.0,0.0,84,0.00,,---,0.00,VWS V14.01,2013-07-23 03:48:00,
2013-07-22 23:53:00,79.2,73.9,29.82,NW,319,0.0,0.0,84,0.00,,---,0.00,VWS V14.01,2013-07-23 03:53:00,
2013-07-22 23:58:00,79.2,73.9,29.82,NW,319,0.0,0.0,84,0.00,,---,0.00,VWS V14.01,2013-07-23 03:58:00,